Weather History for KSRB - April, 2014

Change the Weather History Date:

Saturday, April 26, 2014

  Actual Average (KCSV) Record (KCSV)
Temperature  
Mean Temperature 62 °F 59 °F  
Max Temperature 84 °F 70 °F 87 °F (1986)
Min Temperature 39 °F 48 °F 32 °F (1972)
Degree Days  
Heating Degree Days 4    
Month to date heating degree days  
Since 1 July heating degree days  
Cooling Degree Days 0    
Month to date cooling degree days  
Year to date cooling degree days  
Growing Degree Days 12 (Base 50)    
Moisture  
Dew Point 45 °F    
Average Humidity 65    
Maximum Humidity 100    
Minimum Humidity 23    
Precipitation  
Precipitation 0.00 in 0.16 in 1.68 in (1970)
Month to date precipitation 4.19  
Year to date precipitation 18.39  
Sea Level Pressure  
Sea Level Pressure 29.99 in    
Wind  
Wind Speed 1 mph (SW)    
Max Wind Speed 8 mph    
Max Gust Speed -    
Visibility 8 miles    
Events      
T = Trace of Precipitation, MM = Missing Value Source: NWS Daily Summary

Daily Weather History Graph

Daily Weather History Graph

Search for Another Location

Airport or City:

Trip Planner

Search our weather history database for the weather conditions in past years. The results will help you decide how hot, cold, wet, or windy it might be!

Date:

Astronomy

Apr. 26, 2014 Rise Set
Actual Time 5:55 AM CDT 7:25 PM CDT
Civil Twilight 5:28 AM CDT 7:52 PM CDT
Nautical Twilight 4:55 AM CDT 8:25 PM CDT
Astronomical Twilight 4:21 AM CDT 8:59 PM CDT
Moon 4:13 AM CDT (4/26) 4:57 PM CDT (4/26)
Length of Visible Light 14h 24m
Length of Day
13h 30m
Waning Crescent, 8% of the Moon is Illuminated
Apr 26
Waning Crescent
Apr 29
New
May 6
First Quarter
May 14
Full
May 21
Last Quarter

Hourly Weather History & Observations

Time (CDT) Temp. Dew Point Humidity Pressure Visibility Wind Dir Wind Speed Gust Speed Precip Events Conditions
12:15 AM 42.8 °F 42.8 °F 100% 29.99 in 2.0 mi Calm Calm - N/A   Clear
12:35 AM 42.8 °F 42.8 °F 100% 29.99 in 7.0 mi Calm Calm - N/A   Clear
12:55 AM 42.8 °F 42.8 °F 100% 29.99 in 10.0 mi Calm Calm - N/A   Clear
1:15 AM 42.8 °F 42.8 °F 100% 29.98 in 2.0 mi Calm Calm - N/A   Clear
1:35 AM 42.8 °F 42.8 °F 100% 29.97 in 0.5 mi Calm Calm - N/A   Unknown
1:55 AM 42.8 °F 42.8 °F 100% 29.97 in 1.2 mi Calm Calm - N/A   Clear
2:15 AM 42.8 °F 41.0 °F 93% 29.98 in 10.0 mi Calm Calm - N/A   Clear
2:35 AM 42.8 °F 41.0 °F 93% 29.97 in 2.5 mi Calm Calm - N/A   Clear
2:55 AM 41.0 °F 39.2 °F 93% 29.98 in 2.0 mi Calm Calm - N/A   Clear
3:15 AM 39.2 °F 39.2 °F 100% 29.98 in 0.5 mi Calm Calm - N/A   Unknown
3:35 AM 41.0 °F 41.0 °F 100% 29.98 in 2.0 mi Calm Calm - N/A   Clear
3:55 AM 39.2 °F 39.2 °F 100% 29.99 in 2.0 mi Calm Calm - N/A   Clear
4:15 AM 39.2 °F 39.2 °F 100% 30.00 in 0.5 mi Calm Calm - N/A   Unknown
4:35 AM 39.2 °F 39.2 °F 100% 30.00 in 3.0 mi Calm Calm - N/A   Clear
4:55 AM 39.2 °F 39.2 °F 100% 30.00 in 7.0 mi Calm Calm - N/A   Clear
5:15 AM 39.2 °F 39.2 °F 100% 30.00 in 1.2 mi Calm Calm - N/A   Clear
5:35 AM 39.2 °F 37.4 °F 93% 30.00 in 1.8 mi Calm Calm - N/A   Clear
5:55 AM 39.2 °F 39.2 °F 100% 30.00 in 10.0 mi Calm Calm - N/A   Clear
6:15 AM 39.2 °F 39.2 °F 100% 30.02 in 10.0 mi Calm Calm - N/A   Clear
6:35 AM 42.8 °F 42.8 °F 100% 30.04 in 10.0 mi Calm Calm - N/A   Clear
6:55 AM 44.6 °F 44.6 °F 100% 30.04 in 10.0 mi Calm Calm - N/A   Clear
7:15 AM 48.2 °F 44.6 °F 87% 30.04 in 10.0 mi Calm Calm - N/A   Clear
7:35 AM 50.0 °F 46.4 °F 87% 30.04 in 10.0 mi Calm Calm - N/A   Clear
7:55 AM 53.6 °F 46.4 °F 77% 30.05 in 10.0 mi Calm Calm - N/A   Clear
8:15 AM 55.4 °F 46.4 °F 72% 30.03 in 10.0 mi Calm Calm - N/A   Clear
8:35 AM 57.2 °F 46.4 °F 67% 30.04 in 7.0 mi Calm Calm - N/A   Clear
9:15 AM 64.4 °F 50.0 °F 59% 30.03 in 10.0 mi Calm Calm - N/A   Clear
9:35 AM 66.2 °F 46.4 °F 49% 30.03 in 10.0 mi South 5.8 mph - N/A   Clear
9:55 AM 69.8 °F 46.4 °F 43% 30.04 in 10.0 mi Variable 4.6 mph - N/A   Clear
10:15 AM 71.6 °F 46.4 °F 41% 30.03 in 10.0 mi South 3.5 mph - N/A   Clear
10:35 AM 71.6 °F 44.6 °F 38% 30.03 in 10.0 mi SSW 4.6 mph - N/A   Clear
10:55 AM 71.6 °F 42.8 °F 35% 30.03 in 10.0 mi SSE 4.6 mph - N/A   Clear
11:15 AM 73.4 °F 42.8 °F 33% 30.03 in 10.0 mi SW 6.9 mph - N/A   Clear
11:35 AM 75.2 °F 44.6 °F 34% 30.03 in 10.0 mi SW 5.8 mph - N/A   Clear
11:55 AM 75.2 °F 44.6 °F 34% 30.02 in 10.0 mi SW 4.6 mph - N/A   Clear
12:15 PM 75.2 °F 44.6 °F 34% 30.02 in 10.0 mi SW 6.9 mph - N/A   Clear
12:35 PM 77.0 °F 42.8 °F 29% 30.01 in 10.0 mi Calm Calm - N/A   Clear
12:55 PM 78.8 °F 44.6 °F 30% 30.01 in 10.0 mi SSW 6.9 mph - N/A   Clear
1:15 PM 78.8 °F 44.6 °F 30% 30.00 in 10.0 mi Calm Calm - N/A   Clear
1:35 PM 80.6 °F 44.6 °F 28% 29.99 in 10.0 mi Variable 3.5 mph - N/A   Clear
1:55 PM 80.6 °F 44.6 °F 28% 29.98 in 10.0 mi Calm Calm - N/A   Clear
2:15 PM 82.4 °F 44.6 °F 26% 29.98 in 10.0 mi SW 5.8 mph - N/A   Clear
2:35 PM 82.4 °F 42.8 °F 25% 29.97 in 10.0 mi Calm Calm - N/A   Clear
2:55 PM 82.4 °F 42.8 °F 25% 29.97 in 10.0 mi Calm Calm - N/A   Clear
3:15 PM 84.2 °F 46.4 °F 27% 29.97 in 10.0 mi Variable 4.6 mph - N/A   Clear
3:35 PM 84.2 °F 44.6 °F 25% 29.97 in 10.0 mi West 8.1 mph - N/A   Clear
3:55 PM 82.4 °F 44.6 °F 26% 29.96 in 10.0 mi Calm Calm - N/A   Clear
4:15 PM 84.2 °F 44.6 °F 25% 29.96 in 10.0 mi WNW 8.1 mph - N/A   Clear
4:35 PM 82.4 °F 44.6 °F 26% 29.95 in 10.0 mi Variable 4.6 mph - N/A   Clear
4:55 PM 84.2 °F 42.8 °F 23% 29.95 in 10.0 mi WSW 4.6 mph - N/A   Clear
5:15 PM 82.4 °F 42.8 °F 25% 29.95 in 10.0 mi Variable 6.9 mph - N/A   Clear
5:35 PM 82.4 °F 42.8 °F 25% 29.95 in 10.0 mi Variable 4.6 mph - N/A   Clear
5:55 PM 82.4 °F 42.8 °F 25% 29.94 in 10.0 mi West 4.6 mph - N/A   Clear
6:15 PM 80.6 °F 42.8 °F 26% 29.94 in 10.0 mi Calm Calm - N/A   Clear
6:35 PM 78.8 °F 46.4 °F 32% 29.94 in 10.0 mi Calm Calm - N/A   Clear
6:55 PM 75.2 °F 53.6 °F 47% 29.94 in 10.0 mi Calm Calm - N/A   Clear
7:15 PM 68.0 °F 53.6 °F 60% 29.94 in 10.0 mi Calm Calm - N/A   Clear
7:35 PM 62.6 °F 51.8 °F 68% 29.94 in 10.0 mi Calm Calm - N/A   Clear
7:55 PM 60.8 °F 48.2 °F 63% 29.94 in 10.0 mi Calm Calm - N/A   Clear
8:15 PM 57.2 °F 50.0 °F 77% 29.95 in 10.0 mi Calm Calm - N/A   Clear
8:35 PM 60.8 °F 50.0 °F 68% 29.94 in 10.0 mi Calm Calm - N/A   Clear
8:55 PM 59.0 °F 51.8 °F 77% 29.95 in 10.0 mi Calm Calm - N/A   Clear
9:15 PM 57.2 °F 51.8 °F 82% 29.95 in 10.0 mi Calm Calm - N/A   Clear
9:35 PM 55.4 °F 50.0 °F 82% 29.96 in 10.0 mi Calm Calm - N/A   Clear
9:55 PM 55.4 °F 51.8 °F 88% 29.96 in 10.0 mi Calm Calm - N/A   Clear
10:15 PM 57.2 °F 51.8 °F 82% 29.96 in 10.0 mi Calm Calm - N/A   Clear
10:35 PM 55.4 °F 51.8 °F 88% 29.95 in 10.0 mi Calm Calm - N/A   Clear
10:55 PM 53.6 °F 48.2 °F 82% 29.95 in 10.0 mi Calm Calm - N/A   Clear
11:15 PM 53.6 °F 48.2 °F 82% 29.95 in 10.0 mi Calm Calm - N/A   Clear
11:35 PM 53.6 °F 48.2 °F 82% 29.95 in 10.0 mi Calm Calm - N/A   Clear
11:55 PM 51.8 °F 48.2 °F 88% 29.96 in 10.0 mi Calm Calm - N/A   Clear